User: anonymous   Login
Location: Unspecified
(0.0000°N, 0.0000°E)
Time: 02:55:12
(UTC+00:00)
Language:

Galileo 6 - Orbit

View from above orbital plane
View from above orbital plane
View from above satellite
View from above satellite

Ground track
Ground track

The orbit data is extracted from the following two-line orbital elements,

1 40129U 14050B   17231.93124225 -.00000071 +00000-0 +00000-0 0  9997
2 40129 050.3955 041.6561 1630553 066.7547 309.6202 01.85519387020681
Epoch (UTC): 19 August 2017 22:20:59
Eccentricity: 0.1630553
inclination: 50.3955°
perigee height: 17037 km
apogee height: 26161 km
right ascension of ascending node: 41.6561°
argument of perigee: 66.7547°
revolutions per day: 1.85519387
mean anomaly at epoch: 309.6202°
orbit number at epoch: 2068

The dashed part of the orbit path shows where the satellite is in the earth's shadow,  

DLR